RH
6 10 9 13 25 32 39 26 28 44 32 20 17 19 20 19 20 20 19 19 18 18 19 19 15 13 12 12 12 14 16 15 15 13 10 4 3 3 3 4 5 6 8
8 8 10 10 17 30 43 42 20 16 17 16 14 14 17 18 19 18 19 19 20 21 19 17 16 17 19 21 19 12 10 12 15 15 15 14 11 7 3 3 3 4 5
9 9 10 13 11 16 21 33 38 29 23 21 20 19 14 12 9 13 17 18 18 17 18 19 19 18 16 15 16 19 21 19 14 10 10 12 14 14 12 8 4 3 3
9 9 9 11 13 10 12 15 19 23 25 32 37 27 23 19 13 16 12 8 11 15 15 14 14 13 13 14 13 13 14 16 20 22 19 15 12 10 12 14 13 11 6
8 9 9 19 20 20 11 9 10 13 20 22 39 37 36 28 25 20 18 18 20 18 12 10 10 10 10 9 9 10 12 13 14 15 19 23 21 17 14 11 10 12 12
9 9 9 8 8 11 8 9 10 8 7 8 22 43 43 43 41 36 34 32 28 23 20 20 21 21 25 28 27 25 18 12 13 14 14 15 16 22 23 17 13 10 10
10 9 9 8 8 8 7 7 7 6 6 6 6 9 22 38 46 45 41 37 34 34 34 32 29 23 19 20 20 23 24 26 26 23 18 15 15 16 18 21 23 21 17
9 9 8 8 8 8 7 7 7 7 7 7 7 7 7 7 8 12 16 25 26 22 22 21 24 26 26 25 24 19 15 14 20 28 27 27 25 21 17 18 20 22 23
9 8 8 8 8 8 7 7 7 7 7 7 7 7 7 7 7 7 8 10 16 20 23 21 20 18 18 16 14 16 20 19 16 13 18 26 27 25 26 26 25 26 25
9 8 8 8 8 7 7 7 7 7 7 7 7 7 7 8 7 7 8 8 8 8 8 9 10 13 17 23 22 16 10 8 9 14 17 17 17 22 25 32 37 37 32
8 8 8 8 8 8 8 8 7 8 8 8 8 8 9 10 10 10 11 11 10 11 14 14 13 12 13 14 14 11 10 10 9 9 10 13 14 18 21 25 28 38 38
8 8 9 9 9 9 9 9 10 11 10 11 11 11 12 12 13 14 15 15 14 16 18 17 15 22 32 32 32 29 25 20 18 17 15 13 18 18 19 26 29 28 35
8 9 9 10 10 11 12 15 16 16 14 13 12 13 12 12 11 10 8 7 7 6 6 7 7 9 13 12 8 8 8 7 8 10 13 20 28 28 46 42 22 24 37
9 10 12 14 16 19 20 18 15 11 9 9 8 8 8 8 7 7 6 7 7 8 8 8 8 8 8 8 9 9 9 10 11 12 11 10 8 8 17 28 29 26 24
11 13 18 21 24 23 18 12 10 10 10 9 8 7 7 7 8 8 8 8 7 7 7 7 7 7 8 8 8 8 10 18 20 18 24 18 15 15 12 10 13 26 28
18 22 24 27 24 16 13 11 9 8 8 8 8 8 8 7 7 7 7 7 6 7 7 7 8 8 8 9 10 10 11 11 19 22 14 11 17 26 25 19 14 13 21
26 29 32 17 13 10 7 7 6 6 6 7 8 7 7 7 7 6 6 6 6 7 8 9 10 12 15 15 16 19 18 18 18 17 20 21 21 25 31 39 38 23 18
30 26 17 13 8 8 11 12 12 12 11 9 8 7 6 5 5 6 8 10 12 13 13 14 15 17 18 14 13 10 8 8 9 10 10 11 19 33 32 36 53 52 45
16 11 11 11 11 13 13 12 12 13 12 10 7 6 6 9 12 13 13 13 14 14 14 16 16 14 10 8 13 16 13 13 14 16 19 22 22 26 34 30 40 62 72
9 11 12 11 11 11 12 12 12 12 8 7 10 13 14 14 12 8 6 5 5 5 5 6 6 7 13 16 16 19 16 16 17 19 20 23 24 23 28 33 40 43 65
10 10 10 10 10 12 12 12 9 9 14 14 10 7 4 2 2 2 2 2 2 3 4 5 12 16 17 16 15 17 18 22 23 26 21 18 16 16 22 25 38 40 54
12 12 12 12 12 10 10 15 17 12 5 3 2 2 2 2 2 3 3 4 4 5 14 14 14 16 15 16 19 22 22 26 19 11 10 9 26 34 24 36 53 37 35
9 8 8 12 20 21 13 6 4 3 3 3 3 5 11 12 13 12 12 15 15 16 16 17 16 14 18 25 29 29 22 14 13 12 11 20 32 38 53 55 60 52 45
20 24 23 14 5 3 3 3 3 4 10 15 22 25 22 20 18 18 20 18 18 17 18 15 18 24 27 34 35 25 18 15 13 9 30 49 66 64 74 98 85 84 77
18 6 3 3 3 4 4 7 18 20 17 14 16 22 15 12 12 19 22 23 24 22 22 24 26 27 35 34 30 23 21 20 14 17 34 68 91 79 63 57 91 99 97
4 3 3 4 6 17 25 19 14 10 9 9 8 7 6 8 22 29 30 28 27 26 25 22 22 28 33 34 30 26 24 21 15 29 52 83 84 80 77 54 98 98 98
Wind_Speed
3 2 1 2 3 4 5 5 8 12 13 13 13 13 13 13 13 12 11 9 9 9 11 11 11 11 10 10 9 9 9 8 7 7 8 9 10 11 12 11 10 10 9
4 4 3 3 4 5 5 4 4 4 4 6 7 9 13 17 19 18 16 14 13 12 11 11 10 11 12 13 12 12 13 13 12 10 8 9 9 10 11 12 12 12 12
6 6 6 6 6 6 6 7 7 7 7 7 8 8 8 8 10 16 20 19 18 16 16 16 15 15 14 14 13 14 16 15 15 14 13 12 12 11 11 10 11 12 13
5 5 6 7 8 8 9 10 10 11 10 10 10 9 9 9 9 8 8 11 16 20 21 21 20 20 19 19 18 18 18 18 18 18 17 16 16 15 14 13 13 12 13
4 4 5 7 9 10 11 12 12 13 12 12 13 12 12 11 10 10 10 10 9 10 10 11 13 15 17 19 21 23 24 22 21 21 20 19 20 18 18 17 17 17 16
6 7 7 8 9 11 14 14 15 16 16 15 14 13 14 13 13 13 13 13 13 13 14 14 14 14 15 15 16 17 17 18 22 25 24 23 24 22 22 20 20 20 20
9 9 10 12 13 13 14 15 17 17 18 18 17 16 17 17 17 17 17 17 17 18 18 19 20 20 19 19 20 21 21 20 20 20 20 23 27 26 25 24 24 24 23
12 13 14 15 16 18 18 19 19 19 20 20 19 19 20 21 22 22 23 24 23 23 24 25 25 26 26 25 26 26 26 25 24 24 24 23 22 24 27 29 28 28 28
15 17 18 19 20 21 22 22 22 22 22 22 22 22 22 23 24 25 25 26 27 28 29 30 30 31 31 32 32 32 31 31 30 29 28 27 27 26 25 26 27 28 29
18 19 21 22 22 23 24 24 24 24 24 24 25 26 27 27 28 28 28 29 31 31 32 32 32 34 34 35 36 36 36 35 36 34 34 33 34 32 31 30 30 30 31
21 22 23 24 25 26 26 27 27 27 27 27 28 29 30 30 31 31 32 32 34 34 35 34 35 35 36 37 39 39 38 38 39 38 37 37 38 37 36 35 35 34 34
24 25 26 27 28 29 29 30 30 30 30 30 30 31 31 32 32 32 32 32 33 33 33 34 35 35 36 37 38 39 39 40 41 41 39 39 40 41 41 40 39 38 38
27 28 29 30 31 32 32 31 31 30 30 31 30 30 29 29 28 28 29 29 29 31 31 33 34 34 34 34 34 35 36 37 38 37 38 40 43 43 41 41 43 43 42
31 31 32 33 33 33 32 31 29 28 27 27 28 28 28 29 30 30 31 31 32 32 33 34 35 36 37 38 38 39 39 39 39 41 40 39 40 42 44 48 47 45 45
32 32 33 34 35 32 30 28 27 27 27 28 29 30 30 30 30 31 32 33 34 35 38 39 40 42 43 43 44 45 45 47 46 45 44 46 45 45 46 45 46 47 48
33 35 36 36 32 29 27 28 28 28 29 28 28 30 31 33 33 34 36 38 40 42 43 45 47 48 48 49 50 52 52 51 53 53 53 52 51 51 50 51 48 47 47
38 37 32 25 25 25 25 26 27 28 29 31 34 36 38 39 40 41 43 45 47 49 50 51 51 51 53 54 52 52 53 53 54 53 54 55 56 56 55 54 54 50 48
38 33 27 25 25 26 28 30 33 35 37 39 40 42 44 46 48 49 49 50 51 52 51 51 51 50 48 49 53 53 54 53 53 53 54 54 56 57 58 58 57 56 52
32 27 25 26 28 31 34 37 39 41 43 46 47 49 50 50 50 50 50 50 50 49 48 48 48 50 50 48 44 47 48 49 49 52 54 56 58 58 59 60 60 57 57
26 27 29 32 34 37 40 43 46 48 49 50 50 50 50 52 54 54 53 51 50 49 49 48 46 42 38 42 44 46 50 52 54 58 60 62 64 65 65 65 63 62 58
30 32 35 38 41 44 47 50 51 52 51 51 52 52 52 51 52 53 54 54 52 48 44 40 35 35 40 43 48 51 51 54 56 59 64 68 70 69 69 68 67 66 63
35 38 41 43 46 48 49 49 49 49 49 48 49 52 53 52 51 49 48 45 41 35 30 31 35 41 44 48 53 49 49 52 55 58 63 68 65 64 67 70 68 66 65
40 42 44 45 45 45 46 46 46 47 51 49 45 40 37 36 34 31 28 27 27 28 31 33 37 42 46 47 46 47 48 46 52 60 66 61 57 53 58 62 65 65 65
40 40 41 41 42 43 45 47 48 43 36 31 30 31 30 30 32 33 31 31 30 31 32 35 39 40 41 41 43 43 43 49 57 61 46 46 44 44 47 45 51 56 60
38 38 39 42 44 45 45 36 29 27 28 29 29 31 30 31 33 33 30 29 31 30 31 33 35 38 38 37 36 38 40 46 54 52 39 39 33 34 37 41 38 38 42
37 40 42 43 38 30 27 27 28 28 29 28 29 29 28 28 26 25 24 23 23 26 29 30 31 32 31 31 34 36 41 43 46 43 41 26 22 26 28 37 18 10 34
Wind_Direction
201 235 286 348 325 306 308 302 280 268 268 271 269 270 271 271 272 272 271 272 277 276 274 273 274 278 282 287 287 288 292 297 310 317 319 308 299 292 290 288 282 281 282
240 257 284 313 318 316 315 309 334 332 304 298 300 292 278 271 267 266 266 266 267 272 274 278 278 278 277 279 284 286 287 287 288 289 292 299 305 304 297 290 286 283 281
245 269 287 297 296 299 298 295 297 303 304 300 300 305 311 321 299 275 268 267 267 267 272 274 275 277 279 280 279 279 279 283 288 287 284 283 284 289 293 294 290 284 279
245 277 288 289 287 287 289 289 293 297 299 299 297 296 298 300 300 309 304 285 275 273 271 272 273 276 278 280 279 279 279 280 279 280 282 282 282 280 280 280 281 280 278
245 259 285 281 281 283 287 287 289 290 292 295 290 290 296 295 296 294 291 291 290 292 292 289 287 285 285 283 281 278 276 276 278 279 280 279 278 278 275 273 273 273 273
274 269 274 289 293 287 289 289 291 293 293 289 289 282 286 289 292 288 286 284 285 285 285 287 285 285 286 287 288 287 287 282 276 276 278 280 279 278 276 274 271 269 268
272 281 284 286 293 298 299 296 289 286 287 287 286 282 279 278 280 282 282 283 284 284 286 286 286 285 285 285 286 287 287 286 282 279 277 277 274 276 277 276 276 274 271
276 281 286 291 293 295 298 299 296 291 289 288 287 285 283 280 278 279 281 282 283 283 284 285 285 285 285 284 285 286 286 286 284 283 282 279 276 276 275 273 274 274 274
281 284 287 290 293 296 297 296 296 294 291 290 288 288 287 286 286 286 284 281 281 281 282 282 283 283 283 283 282 280 280 282 282 281 280 278 277 274 270 271 272 271 271
285 285 286 289 292 294 295 295 294 292 289 288 285 284 285 283 281 281 281 279 278 278 279 278 278 279 280 282 282 281 280 279 277 276 276 277 276 275 272 268 267 269 270
290 290 289 290 291 292 293 292 291 289 288 285 284 283 282 282 281 280 279 278 278 278 278 278 277 277 276 277 278 278 279 278 278 277 275 275 274 273 272 271 270 269 269
291 290 290 290 292 291 291 290 289 287 286 283 282 282 281 281 280 280 279 280 281 282 283 283 282 281 280 280 279 280 282 281 280 279 277 275 275 274 272 271 270 269 269
290 289 290 289 290 289 289 287 285 283 282 282 280 279 279 279 280 282 284 285 285 288 287 288 286 285 285 283 283 282 283 284 284 282 282 280 278 276 275 273 270 269 269
290 289 288 288 288 288 287 285 284 282 282 282 283 283 285 286 286 285 286 286 286 285 285 284 285 285 286 286 284 284 281 281 281 284 282 279 279 278 276 275 274 273 271
288 287 286 287 287 286 284 281 281 282 283 284 284 285 286 286 287 288 289 289 288 285 284 283 282 282 281 280 280 278 278 280 278 276 277 280 278 277 276 275 274 273 271
284 283 284 284 282 279 279 281 283 284 285 285 286 287 288 287 287 286 285 285 284 282 281 280 281 280 278 278 278 279 279 277 278 279 278 276 275 277 276 275 273 273 272
281 283 286 275 270 273 278 281 286 286 287 288 288 287 287 287 286 284 282 281 281 281 281 282 281 282 284 283 282 282 281 281 281 280 279 278 276 274 272 273 273 271 270
282 282 275 271 273 278 283 286 287 289 290 290 289 289 288 287 286 285 284 283 282 283 283 283 283 283 282 282 282 281 281 280 281 283 284 283 280 276 273 270 268 270 268
280 275 272 277 282 284 286 287 289 290 290 289 289 289 288 287 286 286 285 284 283 283 282 282 282 282 280 280 282 285 285 284 283 283 285 284 282 281 278 274 269 265 266
275 276 279 281 283 284 286 288 289 288 289 289 290 290 289 288 288 288 287 286 285 284 284 283 282 282 282 285 287 289 290 290 288 286 284 283 280 277 274 273 271 266 260
278 278 280 282 284 285 287 289 291 292 293 292 291 291 291 290 289 289 288 286 285 284 282 280 279 284 292 293 294 292 290 292 292 290 288 284 280 274 266 264 263 264 262
280 280 281 282 285 288 291 293 292 291 291 292 292 292 292 292 291 289 287 286 284 282 282 281 287 294 299 297 298 300 299 296 293 293 293 288 282 270 261 257 255 255 256
281 283 286 289 291 291 290 291 291 292 293 295 296 296 297 300 301 302 299 297 291 289 289 290 293 296 297 297 301 301 300 297 295 301 298 287 277 269 261 255 254 253 251
289 292 292 290 289 290 292 293 294 295 296 297 300 303 300 299 299 298 295 293 290 288 289 292 297 297 297 299 301 301 302 304 303 307 305 294 277 261 258 254 253 252 252
289 288 289 290 293 294 296 296 294 297 301 304 304 301 303 300 294 289 287 291 291 291 296 298 295 295 297 299 299 302 312 319 321 318 318 293 272 257 259 247 251 251 262
288 290 293 294 297 300 298 297 295 296 302 304 304 301 298 298 296 295 288 288 294 300 300 296 298 304 305 301 303 310 317 323 330 322 320 307 261 258 258 241 259 260 241